Temperature
21 22 23 23 23 23 24 24 23 23 23 23 23 24 24 24 23 24 24 23 23 23 22 21 21 20 20 20 19 19 18 18 17 17 16 16 15 15 14 14 14 13 13 13
22 22 23 23 23 23 23 23 23 23 23 23 24 24 25 24 23 23 23 23 23 22 22 21 21 20 20 20 19 19 18 18 17 17 16 16 15 15 14 14 14 13 13 13
23 23 23 22 23 23 23 23 23 23 23 24 24 25 25 25 24 23 22 22 23 22 22 21 21 20 20 20 20 19 18 18 18 17 16 16 15 15 14 14 14 14 13 13
22 22 22 23 23 23 23 23 23 23 24 24 25 24 25 25 25 24 23 22 22 21 21 21 20 20 20 20 20 19 19 18 17 17 16 16 15 15 15 14 14 14 13 13
22 22 23 23 23 23 23 23 23 24 25 25 25 25 25 25 24 24 23 22 21 21 21 21 20 20 20 20 20 19 18 18 17 17 16 16 15 15 15 14 14 14 14 13
22 22 23 23 23 23 23 23 24 24 25 24 24 25 24 24 23 23 23 22 21 20 20 20 20 20 20 20 20 19 19 18 18 17 16 16 15 15 15 14 14 14 14 13
22 23 23 22 23 23 23 25 24 24 24 24 24 24 23 23 22 22 22 21 20 20 20 19 19 19 20 20 20 19 19 18 18 17 17 16 16 15 15 14 14 14 14 14
23 22 23 23 24 24 24 25 24 24 24 24 24 24 23 22 21 21 20 20 19 19 19 18 19 19 19 19 19 19 19 18 18 17 16 16 16 15 15 14 14 14 14 14
24 23 23 23 24 24 24 25 25 25 25 24 24 24 23 23 22 21 20 20 19 18 18 17 18 18 18 19 19 19 18 18 17 17 17 16 16 15 15 15 14 14 14 14
25 24 24 23 24 23 24 24 25 25 24 23 23 23 22 22 21 21 20 19 18 18 17 17 17 17 18 18 18 18 18 17 17 17 16 16 16 16 15 15 14 14 14 14
25 25 24 24 24 24 24 24 24 24 24 24 23 22 22 21 20 20 20 19 18 17 17 17 17 17 17 17 18 18 17 17 17 17 16 16 16 16 15 15 15 14 14 14
24 25 24 24 23 23 24 24 24 24 24 24 24 22 21 20 20 19 19 18 17 17 17 17 17 17 17 17 17 17 17 17 17 16 16 16 16 16 15 15 15 14 14 14
24 25 24 24 23 24 23 23 23 24 24 24 23 22 21 20 20 19 18 18 17 17 16 16 16 17 17 17 17 17 16 17 17 16 16 16 15 15 15 15 15 14 14 14
22 25 24 24 24 24 23 22 22 24 24 23 23 22 21 20 19 18 18 17 17 16 16 16 16 16 16 16 16 16 16 16 16 16 16 15 15 15 15 15 15 14 14 14
24 24 24 23 23 23 23 22 22 23 24 24 23 22 21 20 19 18 17 17 16 16 16 15 15 15 15 15 16 15 15 16 15 15 15 15 15 15 15 15 15 15 14 14
24 24 24 23 22 22 22 22 22 21 22 22 21 21 20 19 18 18 17 16 16 16 15 15 15 15 15 15 15 15 15 15 15 15 15 15 15 15 15 15 15 14 15 14
23 24 23 23 22 22 22 22 21 21 21 21 21 21 19 19 18 17 16 16 15 15 14 14 14 14 14 14 14 14 14 14 14 14 14 14 14 14 14 14 14 14 14 14
22 23 23 23 22 21 22 20 20 20 20 20 20 19 18 18 16 16 15 15 15 14 14 14 14 14 14 14 14 14 14 14 14 14 14 14 14 14 14 14 14 14 14 14
21 22 22 23 22 22 20 20 20 20 20 19 19 19 17 17 17 16 14 14 14 14 13 13 13 13 14 14 14 14 13 13 13 13 13 13 13 13 13 13 13 13 13 13
19 21 22 22 22 22 22 20 19 20 20 19 18 18 17 17 19 18 14 13 13 13 13 13 13 13 13 13 13 13 13 13 13 13 13 13 13 13 13 13 13 13 13 13
20 20 21 21 22 22 20 18 19 20 21 18 18 17 17 17 18 15 13 13 13 13 13 13 12 13 12 12 12 12 12 12 12 12 12 12 13 13 13 13 13 13 12 12
21 21 21 21 21 21 18 18 20 20 18 17 17 17 16 16 14 13 13 12 12 12 12 12 12 12 12 12 12 12 12 12 12 12 12 12 12 12 12 12 12 12 12 12
20 21 21 21 21 18 17 18 17 16 17 16 16 15 15 14 13 13 12 12 12 12 12 11 11 11 11 11 11 11 11 11 11 11 12 12 12 12 12 12 12 12 12 12
19 17 18 19 18 17 16 15 15 15 15 15 14 14 14 13 13 12 12 12 11 11 11 11 11 11 10 10 10 10 10 10 10 11 11 11 11 11 11 11 11 11 11 11
18 17 18 19 18 16 15 14 14 14 14 14 13 13 13 13 12 12 12 11 11 11 11 10 10 10 10 10 10 10 10 10 10 10 10 11 11 11 11 11 11 11 11 11
17 17 18 19 18 18 16 14 13 13 13 13 13 12 12 12 12 11 11 11 11 10 10 10 10 10 9 9 9 9 9 9 9 9 9 10 10 10 10 10 10 10 10 10
Wind_Speed
6 7 8 7 4 2 4 4 5 4 2 1 1 1 3 2 2 1 2 3 4 4 4 5 7 8 9 9 9 8 8 7 5 4 3 2 1 1 1 1 2 3 3 4
8 7 5 5 4 4 5 6 6 4 2 1 2 3 5 5 4 2 1 1 1 2 2 4 6 8 9 10 9 9 8 7 6 4 3 2 1 2 1 2 2 3 3 4
6 6 6 6 5 5 5 5 4 4 3 3 2 8 8 7 6 5 4 3 3 2 1 2 4 6 8 9 9 8 8 8 7 5 3 2 2 2 2 2 2 2 3 4
5 5 6 5 4 3 5 3 3 3 4 4 1 8 9 7 8 8 7 6 5 3 1 1 3 4 6 7 8 8 8 7 7 6 5 4 3 2 2 2 2 3 2 3
5 6 5 4 3 2 3 3 3 3 4 6 3 6 8 8 9 10 9 8 7 5 3 1 1 2 3 5 7 7 7 7 6 6 5 5 4 3 2 2 2 3 2 3
5 3 1 2 3 2 4 5 5 4 5 6 4 4 7 7 9 10 10 10 9 7 5 3 2 1 1 3 5 6 7 6 6 6 6 6 4 4 3 3 3 3 2 2
6 4 2 1 4 4 4 5 5 6 5 6 3 4 7 8 9 9 10 10 10 9 7 6 4 2 1 2 4 6 7 7 7 7 7 6 5 5 5 4 3 4 3 2
7 7 3 2 1 2 2 2 1 4 5 6 4 6 7 8 8 8 8 9 10 10 9 7 6 4 2 1 3 5 6 6 6 7 7 6 6 5 4 5 4 4 4 3
5 6 3 1 1 1 2 2 3 3 5 5 6 7 6 7 9 11 11 12 12 11 10 9 8 6 4 2 0 3 5 5 5 6 6 6 6 6 5 5 5 5 4 4
2 6 4 4 3 4 3 2 2 3 4 4 6 5 3 6 9 10 11 12 11 11 10 10 8 7 6 4 2 0 2 4 5 5 6 5 6 6 6 6 6 6 6 5
2 5 5 4 1 2 3 2 1 1 0 2 5 4 4 5 6 8 9 10 10 10 10 9 8 8 6 5 4 3 1 2 3 5 5 6 6 6 7 6 6 6 6 6
1 2 5 4 3 2 1 1 1 2 2 0 2 4 5 5 5 6 8 9 9 9 9 9 9 8 7 6 5 3 3 2 3 4 5 5 5 6 7 7 7 7 7 7
1 3 5 6 5 4 2 2 1 1 2 2 2 5 5 5 6 7 7 8 9 9 9 9 9 9 8 7 5 4 4 3 3 3 4 5 6 6 7 7 7 7 8 8
2 2 3 2 2 3 3 3 2 3 3 3 2 4 3 4 5 6 7 8 8 9 10 10 9 9 9 7 6 5 5 4 3 3 4 5 6 6 7 7 7 8 8 8
2 2 2 3 3 2 2 3 3 3 3 3 2 3 3 3 3 5 6 7 9 10 11 11 10 10 9 9 7 6 6 5 4 3 4 5 6 6 6 7 7 8 8 8
1 3 4 4 3 3 2 2 3 3 2 3 4 3 3 4 4 4 6 7 9 10 11 11 11 11 11 10 9 7 7 6 5 4 5 5 6 6 6 7 7 8 8 8
1 4 5 5 4 4 5 4 5 4 3 5 4 3 6 5 4 4 5 7 8 8 9 10 11 11 11 10 10 9 7 6 5 5 6 6 6 6 7 7 7 8 8 8
3 5 4 4 5 7 2 4 3 4 3 3 2 5 6 5 4 3 4 5 6 7 8 9 10 10 10 10 10 9 8 7 6 6 7 7 7 7 7 8 8 8 8 8
3 4 5 5 6 4 4 5 5 5 4 4 5 6 6 5 4 3 4 5 5 6 7 7 9 9 10 11 11 10 9 8 8 8 9 8 8 8 8 9 9 9 9 9
3 5 6 6 6 5 4 6 4 5 5 6 6 7 6 5 4 0 2 3 4 5 6 7 8 9 10 11 10 10 10 10 10 10 10 10 10 9 10 10 10 9 8 9
6 6 9 9 7 4 5 6 7 7 3 7 6 6 6 5 1 3 2 2 3 4 6 7 7 8 9 10 11 11 11 11 11 11 11 11 11 11 11 10 9 9 9 9
8 7 8 7 8 5 8 8 7 2 5 7 6 5 5 3 2 2 1 1 3 4 6 7 7 8 9 10 11 11 12 13 13 12 12 12 12 11 10 10 10 9 9 10
6 5 4 5 2 5 7 5 3 3 4 5 5 4 4 4 3 2 1 1 3 4 5 6 7 8 9 10 11 12 13 13 13 13 13 12 13 11 10 10 10 9 9 9
5 3 4 4 5 5 6 4 4 4 4 4 5 5 4 4 3 2 1 2 3 4 5 6 8 9 10 11 11 12 13 14 14 14 13 13 12 11 10 9 9 9 9 9
5 7 6 7 5 5 7 7 7 6 6 6 5 4 4 3 3 3 2 3 3 4 5 6 8 9 11 11 12 12 13 14 14 14 13 13 12 12 11 10 9 11 11 10
8 9 8 7 8 7 7 9 9 8 7 6 5 4 3 3 4 4 4 4 4 5 6 7 8 10 11 12 13 13 13 14 15 14 13 12 11 11 11 11 11 11 13 13
Wind_Direction
169 179 169 163 163 124 154 150 127 102 108 185 110 50 47 72 134 176 201 219 237 234 224 211 205 199 195 196 197 191 190 183 180 179 200 217 224 259 287 317 335 323 325 329
166 161 137 136 145 148 151 136 115 107 103 122 100 96 77 75 75 60 8 321 299 277 227 200 202 197 197 194 197 194 192 187 187 186 196 214 238 269 291 284 287 308 321 325
141 119 140 156 157 145 125 124 119 119 126 142 141 114 90 80 75 66 45 19 12 350 271 186 196 199 200 198 196 195 193 187 189 188 186 185 199 240 236 249 278 300 312 319
110 129 156 157 137 145 114 98 133 152 154 115 139 114 82 72 73 57 41 27 12 2 352 200 195 200 205 199 195 196 192 192 190 191 201 210 238 269 289 294 286 281 293 312
119 146 157 140 115 160 106 133 153 160 145 126 94 116 91 70 56 39 32 24 16 9 1 352 217 206 202 191 190 194 189 192 191 197 201 220 241 266 279 276 273 288 298 301
103 128 89 76 91 133 142 158 151 164 164 117 63 107 87 52 26 19 22 22 20 18 22 25 36 77 156 174 180 184 187 189 190 199 209 223 240 252 263 266 278 282 286 291
123 130 129 172 147 158 209 195 163 157 148 110 79 92 81 47 28 19 16 19 24 28 32 35 36 44 94 168 185 186 189 192 194 203 215 224 235 246 254 264 265 277 290 292
138 139 153 190 254 156 179 264 172 150 140 127 130 109 87 50 37 32 32 34 36 36 35 36 32 30 36 149 190 194 198 201 201 211 219 226 231 243 256 260 271 273 287 294
140 125 118 101 21 302 150 86 14 114 127 138 122 117 105 46 44 40 39 40 38 35 35 34 33 32 30 25 246 212 206 211 213 221 226 229 234 241 250 256 259 269 275 279
133 130 123 132 144 56 28 106 185 178 157 144 140 132 81 31 28 31 34 34 33 32 33 34 33 31 32 33 29 331 227 230 228 230 233 235 240 241 248 255 258 263 269 268
223 149 141 159 155 105 134 138 111 105 211 174 157 120 46 39 29 31 35 35 33 32 31 30 29 29 29 33 38 35 333 261 250 244 240 238 240 243 245 249 256 258 261 258
316 185 142 120 83 20 26 55 227 194 138 164 155 110 70 63 48 39 38 38 36 34 32 30 27 28 27 24 20 16 358 319 281 263 253 248 248 246 249 251 255 258 259 259
194 203 163 155 156 148 115 78 48 78 165 188 200 124 99 74 62 51 43 39 37 36 33 30 27 24 19 13 8 1 351 336 315 282 264 259 256 254 255 260 262 262 262 261
276 221 244 214 108 146 149 139 179 220 222 208 201 136 115 74 61 51 42 39 39 37 33 28 23 20 13 7 2 357 349 342 330 306 279 272 271 267 265 264 266 265 264 264
268 203 133 90 89 126 141 162 185 221 259 250 168 146 128 98 74 58 47 41 38 34 29 23 17 13 9 5 359 355 347 341 330 313 297 289 286 280 275 271 266 265 264 263
303 189 168 155 130 147 169 190 190 204 210 177 154 145 112 113 94 71 51 39 35 29 23 18 14 10 4 0 355 349 343 337 327 315 307 300 293 288 281 277 272 268 264 264
198 212 222 212 174 225 238 224 204 191 190 188 194 154 142 137 105 71 47 36 30 24 18 13 10 7 2 357 351 345 339 332 325 318 315 308 298 291 286 282 275 268 263 261
221 208 222 223 205 234 114 102 154 164 163 177 135 137 155 148 127 92 49 31 24 17 11 8 4 2 359 356 351 344 339 333 325 321 315 313 304 295 290 285 279 274 271 263
240 211 213 225 229 232 176 173 177 186 178 174 163 150 147 143 155 116 49 26 17 10 5 2 358 356 357 356 351 344 341 336 329 324 316 311 304 297 291 284 279 277 275 270
188 221 223 217 230 237 168 148 172 198 192 166 173 166 165 179 223 194 51 20 15 10 4 359 355 355 356 353 348 345 343 338 333 325 316 311 304 295 288 284 282 279 273 271
179 197 218 224 235 237 128 145 170 203 180 155 176 179 184 205 305 76 86 34 13 6 0 355 354 354 351 346 344 342 341 338 330 322 315 310 305 297 289 285 282 279 275 273
195 194 206 213 227 220 144 165 193 136 106 153 170 179 184 167 108 110 87 12 356 355 355 351 348 348 345 343 340 336 336 332 327 321 314 310 306 300 294 289 283 279 275 271
213 218 210 215 208 96 155 164 125 127 153 161 167 169 172 174 177 182 247 323 337 340 343 342 340 338 340 342 339 332 330 327 323 320 316 311 306 300 294 289 286 282 275 270
193 194 211 220 207 180 180 176 174 176 173 167 167 167 177 189 197 208 244 294 320 329 333 333 333 333 334 335 332 329 327 325 321 319 318 315 310 305 298 291 284 280 277 273
195 186 208 223 195 182 197 193 178 169 164 161 162 171 183 194 206 225 254 283 303 313 317 321 324 325 324 325 325 326 326 325 321 318 318 317 314 306 299 290 283 279 275 273
201 202 207 224 198 195 187 180 175 174 175 174 175 187 201 213 224 239 260 276 288 298 306 312 316 316 318 321 321 323 323 322 320 319 319 316 312 307 301 296 291 275 267 268
Height
1505 1503 1502 1502 1502 1502 1502 1504 1506 1508 1509 1509 1508 1509 1508 1510 1511 1511 1512 1513 1514 1516 1518 1519 1521 1522 1524 1526 1527 1528 1529 1530 1530 1530 1530 1530 1530 1529 1528 1527 1525 1524 1523 1521
1503 1502 1502 1503 1504 1504 1503 1505 1508 1509 1508 1508 1508 1508 1507 1510 1511 1512 1512 1513 1514 1515 1516 1517 1519 1520 1522 1524 1526 1527 1528 1529 1529 1529 1529 1529 1528 1528 1527 1526 1525 1524 1522 1521
1499 1502 1504 1505 1505 1504 1505 1506 1509 1510 1508 1507 1507 1509 1507 1509 1511 1512 1513 1514 1514 1515 1515 1516 1517 1519 1521 1522 1524 1525 1526 1527 1527 1527 1527 1527 1527 1527 1527 1526 1525 1523 1522 1520
1502 1504 1505 1504 1505 1504 1509 1507 1508 1509 1507 1510 1506 1515 1510 1508 1510 1511 1513 1514 1514 1515 1515 1516 1516 1517 1519 1521 1522 1524 1525 1526 1526 1526 1526 1527 1527 1527 1527 1526 1524 1523 1521 1520
1504 1504 1504 1505 1506 1506 1508 1508 1507 1506 1505 1506 1505 1508 1514 1509 1512 1513 1515 1515 1515 1515 1515 1515 1516 1516 1518 1519 1520 1522 1523 1524 1524 1525 1525 1525 1526 1526 1525 1524 1524 1523 1521 1519
1504 1506 1506 1506 1507 1507 1508 1507 1506 1504 1502 1515 1513 1511 1522 1516 1518 1516 1516 1517 1516 1515 1515 1515 1515 1515 1516 1517 1518 1520 1521 1522 1522 1523 1523 1524 1524 1524 1524 1523 1523 1522 1521 1519
1506 1506 1507 1508 1507 1508 1506 1505 1511 1514 1515 1519 1514 1515 1524 1521 1522 1521 1520 1519 1518 1516 1515 1514 1514 1514 1515 1516 1517 1518 1519 1520 1521 1522 1522 1523 1523 1523 1523 1523 1522 1521 1520 1519
1507 1511 1506 1506 1504 1504 1503 1502 1510 1520 1521 1519 1514 1518 1522 1523 1525 1524 1523 1521 1519 1517 1516 1515 1515 1514 1514 1515 1516 1517 1518 1519 1520 1520 1521 1521 1521 1521 1521 1521 1520 1520 1519 1518
1502 1508 1505 1506 1506 1503 1503 1503 1503 1505 1511 1516 1517 1518 1519 1522 1523 1524 1523 1521 1520 1519 1518 1517 1516 1515 1515 1514 1515 1516 1517 1518 1518 1519 1519 1519 1520 1519 1519 1519 1519 1518 1517 1516
1496 1505 1505 1507 1506 1508 1504 1504 1505 1507 1519 1525 1525 1523 1526 1525 1525 1525 1524 1524 1523 1522 1520 1519 1517 1516 1515 1515 1514 1515 1515 1516 1516 1517 1517 1518 1518 1517 1517 1517 1517 1516 1515 1514
1497 1501 1507 1506 1506 1506 1507 1508 1507 1508 1509 1519 1528 1531 1527 1528 1529 1528 1528 1527 1525 1524 1522 1521 1519 1518 1516 1515 1515 1514 1514 1514 1514 1515 1515 1515 1515 1515 1515 1514 1514 1513 1513 1512
1500 1497 1503 1507 1508 1508 1506 1506 1506 1511 1516 1514 1518 1533 1529 1530 1531 1530 1529 1528 1527 1525 1524 1522 1520 1518 1517 1515 1515 1514 1513 1513 1513 1513 1513 1513 1513 1513 1512 1512 1511 1511 1510 1510
1501 1499 1507 1512 1513 1510 1509 1511 1509 1507 1509 1514 1520 1531 1528 1530 1531 1531 1530 1529 1528 1526 1524 1522 1520 1518 1517 1515 1514 1514 1513 1512 1511 1511 1511 1511 1511 1510 1510 1509 1509 1508 1508 1507
1504 1499 1504 1512 1509 1507 1510 1513 1512 1509 1511 1515 1517 1523 1527 1529 1530 1531 1531 1530 1528 1527 1525 1523 1521 1519 1517 1515 1514 1513 1512 1511 1510 1509 1509 1508 1508 1508 1507 1507 1506 1505 1505 1504
1502 1501 1503 1506 1509 1509 1511 1513 1513 1512 1510 1512 1516 1521 1525 1528 1530 1531 1531 1530 1528 1527 1525 1523 1521 1519 1517 1515 1513 1512 1511 1509 1508 1508 1507 1506 1506 1505 1504 1503 1502 1502 1501 1500
1502 1503 1505 1510 1511 1511 1513 1513 1514 1515 1514 1515 1519 1523 1525 1529 1530 1531 1530 1530 1528 1527 1525 1524 1521 1519 1517 1515 1513 1511 1510 1508 1507 1506 1505 1504 1503 1502 1501 1500 1499 1498 1497 1496
1504 1502 1506 1508 1511 1512 1514 1511 1513 1515 1515 1515 1518 1521 1526 1528 1530 1530 1530 1529 1529 1527 1526 1524 1522 1519 1517 1515 1512 1510 1508 1507 1506 1504 1503 1502 1500 1499 1497 1496 1495 1494 1493 1492
1505 1504 1504 1507 1513 1520 1511 1513 1514 1515 1517 1517 1519 1522 1525 1527 1529 1530 1530 1529 1528 1527 1526 1524 1522 1519 1517 1514 1512 1509 1507 1505 1504 1502 1500 1499 1497 1495 1494 1492 1491 1490 1489 1488
1508 1506 1506 1507 1510 1511 1513 1512 1513 1514 1516 1518 1519 1522 1525 1527 1527 1528 1529 1528 1528 1526 1525 1523 1521 1519 1516 1513 1510 1508 1506 1504 1502 1499 1498 1496 1494 1492 1490 1488 1487 1485 1484 1483
1511 1507 1505 1508 1511 1511 1506 1509 1513 1514 1515 1517 1519 1521 1523 1524 1522 1524 1527 1527 1526 1525 1523 1521 1519 1517 1515 1512 1509 1507 1504 1502 1499 1497 1495 1493 1490 1488 1486 1484 1483 1481 1479 1478
1507 1507 1506 1505 1505 1501 1505 1510 1513 1515 1510 1515 1517 1519 1521 1522 1522 1525 1525 1525 1524 1523 1521 1519 1518 1515 1513 1510 1507 1505 1502 1499 1497 1494 1491 1489 1486 1484 1482 1480 1478 1476 1474 1473
1498 1501 1502 1502 1505 1504 1506 1508 1507 1507 1510 1513 1515 1518 1520 1521 1522 1523 1523 1523 1522 1521 1519 1517 1515 1513 1510 1508 1505 1503 1500 1497 1493 1490 1487 1484 1482 1480 1477 1475 1473 1471 1469 1467
1497 1496 1495 1496 1499 1502 1504 1505 1508 1509 1511 1513 1514 1516 1518 1519 1520 1521 1521 1520 1520 1518 1517 1515 1513 1510 1508 1505 1502 1499 1496 1493 1489 1486 1483 1480 1477 1475 1472 1470 1468 1466 1464 1462
1496 1501 1499 1498 1499 1502 1504 1506 1507 1508 1510 1512 1513 1515 1516 1517 1518 1518 1518 1518 1517 1516 1514 1512 1510 1507 1505 1502 1499 1496 1492 1489 1486 1482 1479 1476 1472 1469 1467 1464 1462 1460 1458 1457
1493 1497 1496 1495 1497 1501 1503 1504 1505 1507 1509 1510 1512 1513 1514 1515 1515 1516 1515 1515 1514 1512 1511 1509 1507 1504 1501 1498 1495 1492 1489 1485 1482 1478 1475 1471 1468 1464 1461 1458 1456 1454 1452 1451
1491 1491 1491 1489 1492 1495 1498 1500 1503 1505 1506 1508 1509 1511 1511 1512 1512 1512 1512 1511 1510 1509 1507 1505 1503 1500 1497 1494 1491 1488 1485 1481 1478 1474 1470 1466 1463 1459 1456 1452 1449 1446 1445 1442